Weather Roundup
Issued by NWS Chicago, IL

Home | Current Version | Previous Version | Graphics & Text | Print | Product List | Glossary On
Versions: 1 2 3 4 5 6 7 8 9 10 11 12 13 14 15 16 17 18 19 20 21 22 23 24 25 26 27 28 29 30 31 32 33 34 35 36 37 38 39 40 41 42 43 44 45 46 47 48 49 50
000
NZUS59 KLOT 211810
HRRLOT

CHICAGO AREA WEATHER ROUNDUP
NATIONAL WEATHER SERVICE CHICAGO/ROMEOVILLE IL
100 PM CDT SUN SEP 21 2014

NOTE: "FAIR" INDICATES FEW OR NO CLOUDS BELOW 12,000 FEET WITH NO
SIGNIFICANT WEATHER AND/OR OBSTRUCTIONS TO VISIBILITY.

* THESE STATIONS ARE NOT UNDER NWS QUALITY CONTROL. THEY ALSO MAY NOT
  REPORT WEATHER SUCH AS PRECIPITATION OR FOG.

ILZ005-006-012>014-019>023-211900-
NORTHEAST ILLINOIS

CITY           SKY/WX    TMP DP  RH WIND       PRES   REMARKS
OHARE          CLOUDY    64  51  62 NW20      29.93R
6HR MIN TEMP:  58; 6HR MAX TEMP:  64; 6HR PCP: TRACE;

MIDWAY         PTSUNNY   66  52  60 NW17G25   29.93R
6HR MIN TEMP:  59; 6HR MAX TEMP:  66;

AURORA         PTSUNNY   64  50  60 NW14G23   29.96R
6HR MIN TEMP:  56; 6HR MAX TEMP:  64;

LANSING*       CLOUDY    61  52  71 NW13G18   29.93R
JOLIET*        CLOUDY    61  49  64 N15G23    29.97R
WAUKEGAN       CLOUDY    61  50  67 NW14G21   29.92R
6HR MIN TEMP:  56; 6HR MAX TEMP:  62; 6HR PCP: TRACE;

DUPAGE AIRPORT PTSUNNY   63  51  65 NW17      29.95R
6HR MIN TEMP:  57; 6HR MAX TEMP:  64;

WHEELING       PTSUNNY   66  52  60 NW16G28   29.94R
6HR MIN TEMP:  59; 6HR MAX TEMP:  66;

KANKAKEE*      CLOUDY    64  52  65 W12G20    29.96R
MORRIS*        CLOUDY    64  51  62 NW10G16   29.96R
LEWIS AIRPORT* PTSUNNY   61  50  67 NW12G23   29.95R
NORTHERLY IS     N/A     63  50  62 NW15        N/A
$$

WIZ051-052-058>065-066-070>072-211900-
SOUTHEAST WISCONSIN

CITY           SKY/WX    TMP DP  RH WIND       PRES   REMARKS
MILWAUKEE      PTSUNNY   62  51  67 N13G21    29.92R
6HR MIN TEMP:  56; 6HR MAX TEMP:  62; 6HR PCP: TRACE;

KENOSHA*       CLOUDY    62  52  69 N14G23    29.93R
RACINE*        CLOUDY    62  51  67 NW18G26   29.93R
BURLINGTON     PTSUNNY   63  50  62 N13G23    29.94R
WAUKESHA       PTSUNNY   61  52  72 NW14G23   29.94R
WEST BEND      RAIN      57  50  77 NW17G24   29.94R
$$

INZ001>003-010>013-019-020-211900-
NORTHWEST INDIANA

CITY           SKY/WX    TMP DP  RH WIND       PRES   REMARKS
GARY*          PTSUNNY   64  50  59 W12G23    29.92R
MICHIGAN CITY* NOT AVBL
RENSSELAER*    NOT AVBL
VALPARAISO     CLOUDY    63  50  62 NW14G21   29.91R
$$

LMZ740>746-211900-
SOUTHERN LAKE MICHIGAN

STATION/POSITION TIME  SKY/WX   TEMP WIND        PRES    VSBY
                                AIR  DIR/SP/G
                 (UTC)          (F)  (DEG/KT/KT) (MB)    (MI)
HARRISON CRIB    1800            61  310/ 16/ 19   N/A
BURNHAM HARBOR   1800            63  310/  7/ 19   N/A
CALUMET HARBOR   1800            64  300/ 11/ 19 1012.1R
BURNS HARBOR     NOT AVBL
MICHIGAN CITY    1800            60  270/ 24/ 28   N/A
$$

ABBREVIATIONS USED IN REMARKS
   TC - TEMPERATURE IN CELSIUS
  WCI - WIND CHILL INDEX
   HX - HEAT INDEX
  VSB - VISIBILITY
$$


USA.gov is the U.S. government's official web portal to all federal, state and local government web resources and services.